• In Belarus
  • List of Countries
  • For 7 days
  • Water Temperature
  • Satellite Maps
  • Weather Map
  • Weather Widgets
  • user-avatar
    Login

    Hourly Weather Yablochnyy

    Today, 20 May, Monday

    Time Temperature Precipitation Wind Pressure Humidity
    00:00 +17°C° 0 mm 3 mps 751 mmHg 63%
    01:00 +16°C° 0 mm 3 mps 752 mmHg 63%
    02:00 +16°C° 0 mm 3 mps 752 mmHg 64%
    03:00 +14°C° 0 mm 3 mps 751 mmHg 67%
    04:00 +16°C° 0 mm 3 mps 752 mmHg 69%
    05:00 +16°C° 0 mm 3 mps 752 mmHg 70%
    06:00 +16°C° 0 mm 3 mps 753 mmHg 71%
    07:00 +18°C° 0 mm 4 mps 753 mmHg 66%
    08:00 +19°C° 0 mm 4 mps 753 mmHg 60%
    09:00 +21°C° 0 mm 5 mps 754 mmHg 53%
    10:00 +21°C° 0 mm 5 mps 754 mmHg 49%
    11:00 +22°C° 0 mm 5 mps 754 mmHg 46%
    12:00 +23°C° 0 mm 5 mps 755 mmHg 42%
    13:00 +23°C° 0 mm 5 mps 755 mmHg 40%
    14:00 +23°C° 0 mm 5 mps 755 mmHg 37%
    15:00 +23°C° 0 mm 5 mps 755 mmHg 35%
    16:00 +22°C° 0 mm 4 mps 755 mmHg 38%
    17:00 +22°C° 0 mm 4 mps 755 mmHg 41%
    18:00 +21°C° 0 mm 3 mps 755 mmHg 44%
    19:00 +19°C° 0 mm 3 mps 755 mmHg 46%
    20:00 +17°C° 0 mm 3 mps 755 mmHg 48%
    21:00 +16°C° 0 mm 2 mps 755 mmHg 50%
    22:00 +15°C° 0 mm 2 mps 755 mmHg 51%
    23:00 +15°C° 0 mm 2 mps 756 mmHg 51%

    Tomorrow, 21 May, Tuesday

    Time Temperature Precipitation Wind Pressure Humidity
    00:00 +14°C° 0 mm 2 mps 756 mmHg 52%
    01:00 +14°C° 0 mm 2 mps 756 mmHg 52%
    02:00 +13°C° 0 mm 2 mps 756 mmHg 53%
    03:00 +13°C° 0 mm 2 mps 756 mmHg 53%
    04:00 +13°C° 0 mm 2 mps 756 mmHg 55%
    05:00 +13°C° 0 mm 2 mps 757 mmHg 57%
    06:00 +14°C° 0 mm 2 mps 757 mmHg 58%
    07:00 +15°C° 0 mm 2 mps 757 mmHg 53%
    08:00 +17°C° 0 mm 3 mps 757 mmHg 48%
    09:00 +19°C° 0 mm 3 mps 758 mmHg 43%
    10:00 +20°C° 0 mm 3 mps 758 mmHg 41%
    11:00 +21°C° 0 mm 3 mps 758 mmHg 40%
    12:00 +22°C° 0 mm 3 mps 758 mmHg 38%
    13:00 +22°C° 0 mm 3 mps 757 mmHg 37%
    14:00 +22°C° 0 mm 3 mps 757 mmHg 37%
    15:00 +24°C° 0 mm 3 mps 757 mmHg 36%
    16:00 +22°C° 0 mm 3 mps 757 mmHg 39%
    17:00 +22°C° 0 mm 3 mps 756 mmHg 42%
    18:00 +21°C° 0 mm 3 mps 756 mmHg 45%
    19:00 +20°C° 0 mm 3 mps 756 mmHg 47%
    20:00 +18°C° 0 mm 3 mps 756 mmHg 49%
    21:00 +16°C° 0 mm 3 mps 756 mmHg 51%
    22:00 +14°C° 0 mm 4 mps 756 mmHg 50%
    23:00 +14°C° 0 mm 4 mps 756 mmHg 49%

    Day after tomorrow, 22 May, Wednesday

    Time Temperature Precipitation Wind Pressure Humidity
    00:00 +13°C° 0 mm 4 mps 756 mmHg 48%
    01:00 +13°C° 0 mm 4 mps 756 mmHg 49%
    02:00 +12°C° 0 mm 4 mps 756 mmHg 51%
    03:00 +12°C° 0 mm 4 mps 755 mmHg 52%
    04:00 +12°C° 0 mm 3 mps 755 mmHg 55%
    05:00 +12°C° 0 mm 3 mps 755 mmHg 58%
    06:00 +12°C° 0 mm 3 mps 755 mmHg 61%
    07:00 +14°C° 0 mm 4 mps 755 mmHg 53%
    08:00 +16°C° 0 mm 5 mps 755 mmHg 46%
    09:00 +19°C° 0 mm 6 mps 755 mmHg 39%
    10:00 +20°C° 0 mm 7 mps 755 mmHg 38%
    11:00 +20°C° 0 mm 7 mps 754 mmHg 37%
    12:00 +21°C° 0 mm 7 mps 754 mmHg 36%
    13:00 +22°C° 0 mm 7 mps 753 mmHg 36%
    14:00 +22°C° 0 mm 7 mps 753 mmHg 36%
    15:00 +22°C° 0 mm 7 mps 752 mmHg 36%
    16:00 +22°C° 0 mm 6 mps 752 mmHg 41%
    17:00 +21°C° 0 mm 5 mps 752 mmHg 45%
    18:00 +20°C° 0 mm 4 mps 752 mmHg 50%
    19:00 +19°C° 0 mm 4 mps 752 mmHg 52%
    20:00 +18°C° 0 mm 4 mps 752 mmHg 54%
    21:00 +15°C° 0 mm 4 mps 752 mmHg 57%
    22:00 +15°C° 0.2 mm 4 mps 752 mmHg 65%
    23:00 +15°C° 0.2 mm 4 mps 752 mmHg 74%

    23 May, Thursday

    Time Temperature Precipitation Wind Pressure Humidity
    00:00 +14°C° 0.2 mm 4 mps 751 mmHg 83%
    01:00 +14°C° 1.1 mm 4 mps 751 mmHg 86%
    02:00 +14°C° 1.1 mm 4 mps 751 mmHg 88%
    03:00 +13°C° 1.1 mm 4 mps 751 mmHg 91%
    04:00 +13°C° 0.4 mm 5 mps 751 mmHg 91%
    05:00 +13°C° 0.4 mm 5 mps 751 mmHg 90%
    06:00 +13°C° 0.4 mm 5 mps 751 mmHg 90%
    07:00 +14°C° 0.1 mm 4 mps 751 mmHg 88%
    08:00 +15°C° 0.1 mm 4 mps 751 mmHg 86%
    09:00 +17°C° 0.1 mm 4 mps 751 mmHg 83%
    10:00 +18°C° 0.1 mm 3 mps 750 mmHg 80%
    11:00 +19°C° 0.1 mm 3 mps 750 mmHg 77%
    12:00 +20°C° 0.1 mm 2 mps 750 mmHg 73%
    13:00 +20°C° 0.4 mm 2 mps 750 mmHg 68%
    14:00 +21°C° 0.4 mm 2 mps 749 mmHg 63%
    15:00 +23°C° 0.4 mm 2 mps 749 mmHg 58%
    16:00 +23°C° 0.4 mm 2 mps 749 mmHg 60%
    17:00 +23°C° 0.4 mm 2 mps 749 mmHg 61%
    18:00 +23°C° 0.4 mm 2 mps 749 mmHg 62%
    19:00 +20°C° 0 mm 3 mps 749 mmHg 70%
    20:00 +18°C° 0 mm 3 mps 749 mmHg 77%
    21:00 +17°C° 0 mm 3 mps 749 mmHg 85%
    22:00 +16°C° 0 mm 3 mps 749 mmHg 88%
    23:00 +16°C° 0 mm 3 mps 749 mmHg 91%

    24 May, Friday

    Time Temperature Precipitation Wind Pressure Humidity
    00:00 +14°C° 0 mm 3 mps 749 mmHg 94%
    01:00 +14°C° 0 mm 3 mps 749 mmHg 95%
    02:00 +14°C° 0 mm 2 mps 749 mmHg 95%
    03:00 +14°C° 0 mm 2 mps 749 mmHg 96%
    04:00 +14°C° 0 mm 2 mps 749 mmHg 95%
    05:00 +15°C° 0 mm 2 mps 749 mmHg 94%
    06:00 +14°C° 0 mm 3 mps 749 mmHg 93%
    07:00 +17°C° 0 mm 2 mps 749 mmHg 86%
    08:00 +18°C° 0 mm 2 mps 749 mmHg 79%
    09:00 +20°C° 0 mm 2 mps 750 mmHg 72%
    10:00 +21°C° 0 mm 2 mps 749 mmHg 67%
    11:00 +23°C° 0 mm 2 mps 749 mmHg 63%
    12:00 +24°C° 0 mm 2 mps 749 mmHg 59%
    13:00 +24°C° 0.1 mm 2 mps 749 mmHg 59%
    14:00 +24°C° 0.1 mm 3 mps 749 mmHg 59%
    15:00 +25°C° 0.1 mm 3 mps 748 mmHg 59%
    16:00 +25°C° 0 mm 3 mps 748 mmHg 60%
    17:00 +24°C° 0 mm 3 mps 748 mmHg 61%
    18:00 +24°C° 0 mm 3 mps 748 mmHg 62%
    19:00 +23°C° 0 mm 2 mps 748 mmHg 68%
    20:00 +20°C° 0 mm 2 mps 748 mmHg 73%
    21:00 +19°C° 0 mm 2 mps 748 mmHg 78%
    22:00 +19°C° 0 mm 2 mps 748 mmHg 80%
    23:00 +18°C° 0 mm 2 mps 748 mmHg 81%

    25 May, Saturday

    Time Temperature Precipitation Wind Pressure Humidity
    00:00 +18°C° 0 mm 2 mps 748 mmHg 83%
    01:00 +17°C° 0 mm 2 mps 748 mmHg 84%
    02:00 +17°C° 0 mm 2 mps 747 mmHg 85%
    03:00 +17°C° 0 mm 2 mps 747 mmHg 86%
    04:00 +17°C° 0 mm 2 mps 747 mmHg 84%
    05:00 +18°C° 0 mm 2 mps 747 mmHg 82%
    06:00 +18°C° 0 mm 2 mps 748 mmHg 80%
    07:00 +20°C° 0 mm 2 mps 747 mmHg 73%
    08:00 +22°C° 0 mm 3 mps 747 mmHg 66%
    09:00 +25°C° 0 mm 3 mps 747 mmHg 58%
    10:00 +26°C° 0 mm 4 mps 747 mmHg 55%
    11:00 +27°C° 0 mm 4 mps 747 mmHg 52%
    12:00 +27°C° 0 mm 4 mps 746 mmHg 48%
    13:00 +28°C° 0 mm 5 mps 746 mmHg 48%
    14:00 +28°C° 0 mm 5 mps 745 mmHg 47%
    15:00 +28°C° 0 mm 6 mps 745 mmHg 46%
    16:00 +28°C° 0 mm 5 mps 745 mmHg 48%
    17:00 +28°C° 0 mm 5 mps 744 mmHg 50%
    18:00 +28°C° 0 mm 4 mps 744 mmHg 52%
    19:00 +26°C° 0.1 mm 5 mps 744 mmHg 55%
    20:00 +23°C° 0.1 mm 6 mps 744 mmHg 59%
    21:00 +21°C° 0.1 mm 7 mps 744 mmHg 62%
    22:00 +21°C° 0.5 mm 7 mps 744 mmHg 67%
    23:00 +20°C° 0.5 mm 7 mps 744 mmHg 72%
    Show more